Weather History for KF44 - October, 2012

Change the Weather History Date:

Saturday, October 6, 2012

  Actual Average (KTYR) Record (KTYR)
Temperature  
Mean Temperature 56 °F 70 °F  
Max Temperature 85 °F 81 °F 97 °F (1911)
Min Temperature 50 °F 59 °F 37 °F (1975)
Degree Days  
Heating Degree Days 8 1  
Month to date heating degree days 6  
Since 1 July heating degree days 11  
Cooling Degree Days 0 6  
Month to date cooling degree days 39  
Year to date cooling degree days 2303  
Growing Degree Days 6 (Base 50)    
Moisture  
Dew Point 50 °F    
Average Humidity 81    
Maximum Humidity 96    
Minimum Humidity 67    
Precipitation  
Precipitation 0.01 in 0.13 in 4.17 in (1930)
Month to date precipitation 0.79  
Year to date precipitation 33.39  
Snow  
Snow - - - ()
Month to date snowfall  
Since 1 July snowfall  
Since 1 September snowfall  
Snow Depth -    
Sea Level Pressure  
Sea Level Pressure 30.11 in    
Wind  
Wind Speed 8 mph ()    
Max Wind Speed 13 mph    
Max Gust Speed 22 mph    
Visibility 9.6 miles    
Events Rain    
T = Trace of Precipitation, MM = Missing Value Source: Averaged Metar Reports

Daily Weather History Graph

Daily Weather History Graph

Search for Another Location

Airport or City:

Trip Planner

Search our weather history database for the weather conditions in past years. The results will help you decide how hot, cold, wet, or windy it might be!

Date:

Astronomy

Oct. 06, 2012 Rise Set
Actual Time 7:20 AM CDT 7:01 PM CDT
Civil Twilight 6:56 AM CDT 7:25 PM CDT
Nautical Twilight 6:28 AM CDT 7:53 PM CDT
Astronomical Twilight 5:59 AM CDT 8:22 PM CDT
Moon 11:32 PM CDT (10/6) 1:00 PM CDT (10/6)
Length of Visible Light 12h 29m
Length of Day
11h 40m
Waning Gibbous, 65% of the Moon is Illuminated
Oct 6
Waning Gibbous
Oct 8
Last Quarter
Oct 15
New
Oct 21
First Quarter
Oct 29
Full

Hourly Weather History & Observations

Time (CDT) Temp. Dew Point Humidity Pressure Visibility Wind Dir Wind Speed Gust Speed Precip Events Conditions
12:15 AM 63.7 °F 54.9 °F 73% 30.05 in 10.0 mi North 12.7 mph - N/A   Overcast
12:35 AM 62.8 °F 54.3 °F 74% 30.05 in 10.0 mi NNE 10.4 mph - N/A   Overcast
12:55 AM 61.9 °F 53.6 °F 74% 30.06 in 10.0 mi NNE 11.5 mph - N/A   Overcast
1:15 AM 61.7 °F 53.1 °F 73% 30.06 in 10.0 mi North 12.7 mph - N/A   Overcast
1:55 AM 60.1 °F 52.3 °F 76% 30.06 in 10.0 mi NNE 10.4 mph - N/A   Mostly Cloudy
2:15 AM 59.7 °F 52.0 °F 76% 30.07 in 10.0 mi North 9.2 mph - N/A   Mostly Cloudy
2:35 AM 59.5 °F 52.0 °F 76% 30.07 in 10.0 mi North 10.4 mph - N/A   Overcast
2:55 AM 59.2 °F 51.8 °F 77% 30.06 in 10.0 mi NNE 5.8 mph - N/A   Mostly Cloudy
3:15 AM 59.0 °F 51.8 °F 77% 30.06 in 10.0 mi North 9.2 mph - N/A   Scattered Clouds
3:35 AM 58.6 °F 51.8 °F 78% 30.06 in 10.0 mi NNE 6.9 mph - N/A   Scattered Clouds
3:55 AM 58.3 °F 51.8 °F 79% 30.06 in 10.0 mi NNE 6.9 mph - N/A   Scattered Clouds
4:35 AM 58.1 °F 51.8 °F 80% 30.07 in 10.0 mi NNE 11.5 mph - N/A   Overcast
4:55 AM 58.1 °F 51.8 °F 80% 30.08 in 10.0 mi North 9.2 mph - N/A   Overcast
5:15 AM 58.3 °F 52.0 °F 80% 30.07 in 10.0 mi NNE 6.9 mph - N/A   Overcast
5:35 AM 58.3 °F 52.0 °F 80% 30.08 in 10.0 mi North 8.1 mph - N/A   Overcast
5:55 AM 58.5 °F 52.2 °F 80% 30.08 in 10.0 mi North 10.4 mph - N/A   Overcast
6:15 AM 58.5 °F 52.2 °F 80% 30.09 in 10.0 mi North 8.1 mph - N/A   Overcast
6:35 AM 58.3 °F 52.3 °F 81% 30.09 in 10.0 mi North 6.9 mph - N/A   Overcast
6:55 AM 58.1 °F 52.7 °F 82% 30.10 in 10.0 mi North 10.4 mph - N/A Rain Rain
7:15 AM 57.4 °F 54.0 °F 88% 30.09 in 10.0 mi NNE 8.1 mph - 0.01 in Rain Light Rain
7:35 AM 56.7 °F 54.1 °F 91% 30.10 in 10.0 mi NNE 6.9 mph - 0.01 in   Overcast
7:55 AM 56.5 °F 54.1 °F 92% 30.10 in 7.0 mi NNE 8.1 mph - 0.01 in   Overcast
8:15 AM 56.5 °F 54.3 °F 92% 30.11 in 10.0 mi North 5.8 mph - N/A   Overcast
8:35 AM 56.7 °F 54.7 °F 93% 30.11 in 7.0 mi NNE 8.1 mph - N/A   Overcast
8:55 AM 56.3 °F 54.7 °F 94% 30.11 in 5.0 mi NNE 6.9 mph - N/A   Overcast
9:15 AM 56.3 °F 55.0 °F 96% 30.12 in 2.5 mi NNE 6.9 mph - N/A   Overcast
9:35 AM 56.3 °F 54.9 °F 95% 30.12 in 3.0 mi NNE 8.1 mph - N/A   Overcast
9:55 AM 56.5 °F 55.2 °F 96% 30.12 in 5.0 mi NE 8.1 mph - N/A   Overcast
10:15 AM 56.5 °F 54.5 °F 93% 30.12 in 10.0 mi ENE 10.4 mph - N/A   Overcast
10:35 AM 56.7 °F 53.4 °F 89% 30.12 in 10.0 mi ENE 9.2 mph - N/A   Overcast
10:55 AM 56.7 °F 52.9 °F 87% 30.12 in 10.0 mi ENE 6.9 mph - N/A   Overcast
11:15 AM 57.0 °F 52.7 °F 85% 30.12 in 10.0 mi NE 6.9 mph - N/A   Overcast
11:35 AM 56.8 °F 52.5 °F 85% 30.12 in 10.0 mi NE 6.9 mph - N/A   Overcast
11:55 AM 56.5 °F 52.5 °F 87% 30.12 in 10.0 mi NNE 9.2 mph - N/A   Overcast
12:15 PM 55.6 °F 52.2 °F 88% 30.12 in 10.0 mi NE 6.9 mph - N/A   Overcast
12:35 PM 56.1 °F 51.8 °F 85% 30.12 in 10.0 mi NE 6.9 mph - N/A   Overcast
12:55 PM 56.5 °F 51.6 °F 84% 30.12 in 10.0 mi NE 4.6 mph - N/A   Overcast
1:15 PM 56.5 °F 51.4 °F 83% 30.12 in 10.0 mi North 8.1 mph - N/A   Overcast
1:35 PM 56.5 °F 51.4 °F 83% 30.12 in 10.0 mi NNE 5.8 mph - N/A   Overcast
1:55 PM 56.7 °F 51.4 °F 83% 30.11 in 10.0 mi NE 5.8 mph - N/A   Overcast
2:15 PM 56.8 °F 51.8 °F 83% 30.10 in 10.0 mi ENE 6.9 mph - N/A   Overcast
2:35 PM 57.2 °F 51.6 °F 82% 30.10 in 10.0 mi NNE 8.1 mph - N/A   Overcast
2:55 PM 56.5 °F 51.8 °F 84% 30.10 in 10.0 mi North 10.4 mph - N/A   Overcast
3:15 PM 55.4 °F 51.6 °F 87% 30.10 in 10.0 mi NNE 9.2 mph - N/A   Overcast
3:35 PM 55.2 °F 51.3 °F 87% 30.10 in 10.0 mi NE 6.9 mph - N/A   Overcast
3:55 PM 54.7 °F 50.7 °F 86% 30.09 in 10.0 mi NNE 10.4 mph 16.1 mph N/A   Overcast
4:15 PM 54.5 °F 50.2 °F 85% 30.09 in 10.0 mi NE 8.1 mph - N/A   Overcast
4:35 PM 54.0 °F 49.5 °F 85% 30.10 in 10.0 mi NE 6.9 mph - N/A   Overcast
4:55 PM 53.2 °F 48.9 °F 85% 30.11 in 10.0 mi NNE 9.2 mph - N/A   Overcast
5:15 PM 53.1 °F 48.4 °F 84% 30.11 in 10.0 mi NNE 6.9 mph - N/A   Overcast
5:35 PM 53.4 °F 48.2 °F 82% 30.11 in 10.0 mi NE 6.9 mph - N/A   Overcast
5:55 PM 53.1 °F 47.8 °F 82% 30.11 in 10.0 mi NE 6.9 mph - N/A   Overcast
6:15 PM 53.1 °F 47.5 °F 81% 30.12 in 10.0 mi NNE 9.2 mph - N/A   Overcast
6:35 PM 53.1 °F 46.9 °F 80% 30.12 in 10.0 mi NE 5.8 mph - N/A   Overcast
6:55 PM 53.1 °F 46.4 °F 78% 30.13 in 10.0 mi NNE 8.1 mph - N/A   Overcast
7:15 PM 53.2 °F 45.3 °F 74% 30.13 in 10.0 mi NE 9.2 mph - N/A   Overcast
7:35 PM 53.1 °F 44.6 °F 73% 30.14 in 10.0 mi NE 8.1 mph - N/A   Overcast
7:55 PM 53.1 °F 44.6 °F 73% 30.14 in 10.0 mi NNE 10.4 mph - N/A   Overcast
8:15 PM 52.9 °F 44.8 °F 74% 30.16 in 10.0 mi NNE 9.2 mph - N/A   Overcast
8:35 PM 52.9 °F 44.6 °F 73% 30.17 in 10.0 mi NNE 6.9 mph - N/A   Overcast
8:55 PM 52.5 °F 44.1 °F 73% 30.17 in 10.0 mi NNE 10.4 mph 16.1 mph N/A   Overcast
9:15 PM 52.0 °F 43.3 °F 72% 30.17 in 10.0 mi NE 11.5 mph 16.1 mph N/A   Overcast
9:35 PM 51.8 °F 42.8 °F 71% 30.18 in 10.0 mi NNE 12.7 mph 18.4 mph N/A   Overcast
9:55 PM 51.8 °F 42.3 °F 70% 30.19 in 10.0 mi NE 11.5 mph 16.1 mph N/A   Overcast
10:15 PM 51.8 °F 41.5 °F 68% 30.19 in 10.0 mi NNE 12.7 mph 18.4 mph N/A   Overcast
10:35 PM 51.6 °F 41.0 °F 67% 30.19 in 10.0 mi NE 8.1 mph 18.4 mph N/A   Overcast
10:55 PM 51.3 °F 41.0 °F 68% 30.19 in 10.0 mi North 8.1 mph - N/A   Overcast
11:15 PM 51.3 °F 40.8 °F 67% 30.19 in 10.0 mi NNE 12.7 mph 17.3 mph N/A   Overcast
11:35 PM 50.5 °F 40.3 °F 68% 30.20 in 10.0 mi NNE 12.7 mph 21.9 mph N/A   Overcast
11:55 PM 50.2 °F 40.3 °F 69% 30.19 in 10.0 mi NNE 12.7 mph 21.9 mph N/A   Overcast